When you browse on this site, cookies collect data to enhance your experience and personalize the content and advertising you see.
Visit our Privacy Policy to learn more. By continuing to use the site, you agree to this use of cookies and data.
  • In Austria
  • List of Countries
  • For 7 days
  • Water Temperature
  • Weather Map
  • News
  • Weather Widgets
  • user-avatar
    Login

    Hourly Weather Prutz

    Today, 22 October, Tuesday

    Time Temperature Precipitation Wind Pressure Humidity
    00:00 +8°C° 0 mm 2 mps 637 mmHg 91%
    01:00 +8°C° 0 mm 3 mps 638 mmHg 93%
    02:00 +8°C° 0 mm 3 mps 637 mmHg 92%
    03:00 +8°C° 0 mm 3 mps 637 mmHg 91%
    04:00 +8°C° 0 mm 3 mps 637 mmHg 90%
    05:00 +8°C° 0 mm 2 mps 637 mmHg 88%
    06:00 +8°C° 0 mm 2 mps 637 mmHg 87%
    07:00 +8°C° 0 mm 2 mps 637 mmHg 86%
    08:00 +10°C° 0 mm 2 mps 638 mmHg 80%
    09:00 +13°C° 0 mm 2 mps 639 mmHg 74%
    10:00 +15°C° 0 mm 2 mps 639 mmHg 69%
    11:00 +16°C° 0 mm 2 mps 639 mmHg 65%
    12:00 +17°C° 0 mm 2 mps 640 mmHg 61%
    13:00 +17°C° 0 mm 2 mps 640 mmHg 57%
    14:00 +17°C° 0 mm 2 mps 639 mmHg 61%
    15:00 +16°C° 0 mm 2 mps 639 mmHg 66%
    16:00 +15°C° 0 mm 2 mps 638 mmHg 70%
    17:00 +14°C° 0 mm 2 mps 638 mmHg 74%
    18:00 +12°C° 0 mm 2 mps 638 mmHg 78%
    19:00 +10°C° 0 mm 2 mps 637 mmHg 81%
    20:00 +9°C° 0 mm 2 mps 637 mmHg 82%
    21:00 +9°C° 0 mm 3 mps 637 mmHg 82%
    22:00 +9°C° 0 mm 3 mps 637 mmHg 83%
    23:00 +9°C° 0 mm 3 mps 637 mmHg 82%

    Tomorrow, 23 October, Wednesday

    Time Temperature Precipitation Wind Pressure Humidity
    00:00 +8°C° 0 mm 3 mps 637 mmHg 81%
    01:00 +8°C° 0 mm 3 mps 636 mmHg 80%
    02:00 +8°C° 0 mm 3 mps 636 mmHg 77%
    03:00 +8°C° 0 mm 3 mps 636 mmHg 75%
    04:00 +8°C° 0 mm 3 mps 635 mmHg 73%
    05:00 +7°C° 0 mm 3 mps 635 mmHg 71%
    06:00 +7°C° 0 mm 3 mps 635 mmHg 69%
    07:00 +7°C° 0 mm 3 mps 635 mmHg 67%
    08:00 +10°C° 0 mm 3 mps 635 mmHg 60%
    09:00 +12°C° 0 mm 3 mps 636 mmHg 54%
    10:00 +14°C° 0 mm 3 mps 637 mmHg 48%
    11:00 +16°C° 0 mm 3 mps 637 mmHg 45%
    12:00 +17°C° 0 mm 3 mps 637 mmHg 42%
    13:00 +18°C° 0 mm 3 mps 637 mmHg 39%
    14:00 +17°C° 0 mm 3 mps 636 mmHg 45%
    15:00 +16°C° 0 mm 3 mps 635 mmHg 50%
    16:00 +14°C° 0 mm 3 mps 635 mmHg 56%
    17:00 +13°C° 0 mm 3 mps 634 mmHg 61%
    18:00 +11°C° 0 mm 3 mps 634 mmHg 67%
    19:00 +9°C° 0 mm 3 mps 633 mmHg 72%
    20:00 +9°C° 0 mm 3 mps 633 mmHg 72%
    21:00 +8°C° 0 mm 4 mps 633 mmHg 71%
    22:00 +8°C° 0 mm 4 mps 633 mmHg 71%
    23:00 +8°C° 0 mm 4 mps 633 mmHg 69%

    Day after tomorrow, 24 October, Thursday

    Time Temperature Precipitation Wind Pressure Humidity
    00:00 +8°C° 0 mm 4 mps 633 mmHg 67%
    01:00 +8°C° 0 mm 4 mps 633 mmHg 65%
    02:00 +7°C° 0 mm 4 mps 632 mmHg 65%
    03:00 +7°C° 0 mm 4 mps 632 mmHg 65%
    04:00 +7°C° 0 mm 4 mps 631 mmHg 66%
    05:00 +7°C° 0 mm 4 mps 631 mmHg 66%
    06:00 +7°C° 0 mm 4 mps 631 mmHg 66%
    07:00 +6°C° 0 mm 4 mps 631 mmHg 66%
    08:00 +8°C° 0 mm 4 mps 632 mmHg 64%
    09:00 +11°C° 0 mm 3 mps 632 mmHg 62%
    10:00 +12°C° 0 mm 3 mps 633 mmHg 60%
    11:00 +13°C° 0 mm 3 mps 633 mmHg 59%
    12:00 +14°C° 0 mm 3 mps 634 mmHg 58%
    13:00 +16°C° 0 mm 3 mps 634 mmHg 57%
    14:00 +14°C° 0.1 mm 3 mps 633 mmHg 63%
    15:00 +14°C° 0.1 mm 2 mps 633 mmHg 69%
    16:00 +13°C° 0.1 mm 2 mps 633 mmHg 76%
    17:00 +10°C° 0 mm 2 mps 633 mmHg 80%
    18:00 +9°C° 0 mm 2 mps 632 mmHg 84%
    19:00 +8°C° 0 mm 2 mps 632 mmHg 89%
    20:00 +8°C° 0 mm 2 mps 633 mmHg 90%
    21:00 +9°C° 0 mm 1 mps 633 mmHg 91%
    22:00 +9°C° 0 mm 1 mps 633 mmHg 92%
    23:00 +9°C° 0.1 mm 1 mps 634 mmHg 92%

    25 October, Friday

    Time Temperature Precipitation Wind Pressure Humidity
    00:00 +9°C° 0.1 mm 1 mps 634 mmHg 91%
    01:00 +8°C° 0.1 mm 0 mps 634 mmHg 91%
    02:00 +8°C° 0.1 mm 0 mps 635 mmHg 92%
    03:00 +8°C° 0.1 mm 0 mps 635 mmHg 93%
    04:00 +8°C° 0.1 mm 0 mps 635 mmHg 93%
    05:00 +9°C° 0.3 mm 1 mps 635 mmHg 94%
    06:00 +9°C° 0.3 mm 1 mps 636 mmHg 95%
    07:00 +8°C° 0.3 mm 1 mps 636 mmHg 96%
    08:00 +9°C° 0 mm 1 mps 636 mmHg 94%
    09:00 +9°C° 0 mm 1 mps 637 mmHg 92%
    10:00 +10°C° 0 mm 1 mps 637 mmHg 90%
    11:00 +11°C° 0 mm 1 mps 637 mmHg 87%
    12:00 +11°C° 0 mm 1 mps 637 mmHg 84%
    13:00 +12°C° 0 mm 1 mps 637 mmHg 81%
    14:00 +12°C° 0 mm 1 mps 637 mmHg 80%
    15:00 +12°C° 0 mm 1 mps 637 mmHg 78%
    16:00 +12°C° 0 mm 1 mps 637 mmHg 77%
    17:00 +11°C° 0 mm 1 mps 636 mmHg 81%
    18:00 +9°C° 0 mm 2 mps 636 mmHg 85%
    19:00 +8°C° 0 mm 2 mps 636 mmHg 88%
    20:00 +8°C° 0 mm 2 mps 636 mmHg 88%
    21:00 +7°C° 0 mm 2 mps 636 mmHg 87%
    22:00 +7°C° 0 mm 3 mps 636 mmHg 86%
    23:00 +7°C° 0 mm 2 mps 636 mmHg 86%

    26 October, Saturday

    Time Temperature Precipitation Wind Pressure Humidity
    00:00 +7°C° 0 mm 2 mps 636 mmHg 86%
    01:00 +7°C° 0 mm 2 mps 635 mmHg 86%
    02:00 +6°C° 0 mm 2 mps 635 mmHg 86%
    03:00 +6°C° 0 mm 2 mps 635 mmHg 85%
    04:00 +6°C° 0 mm 2 mps 635 mmHg 85%
    05:00 +7°C° 0 mm 1 mps 635 mmHg 84%
    06:00 +7°C° 0 mm 1 mps 635 mmHg 83%
    07:00 +6°C° 0 mm 1 mps 635 mmHg 82%
    08:00 +9°C° 0 mm 1 mps 636 mmHg 73%
    09:00 +12°C° 0 mm 1 mps 637 mmHg 64%
    10:00 +14°C° 0 mm 1 mps 638 mmHg 55%
    11:00 +15°C° 0 mm 1 mps 638 mmHg 52%
    12:00 +16°C° 0 mm 1 mps 638 mmHg 49%
    13:00 +18°C° 0 mm 1 mps 638 mmHg 46%
    14:00 +16°C° 0 mm 1 mps 638 mmHg 53%
    15:00 +16°C° 0 mm 1 mps 637 mmHg 59%
    16:00 +15°C° 0 mm 1 mps 637 mmHg 65%
    17:00 +12°C° 0 mm 1 mps 636 mmHg 73%
    18:00 +10°C° 0 mm 1 mps 636 mmHg 81%
    19:00 +7°C° 0 mm 0 mps 635 mmHg 90%
    20:00 +6°C° 0 mm 0 mps 635 mmHg 90%
    21:00 +6°C° 0 mm 0 mps 635 mmHg 90%
    22:00 +6°C° 0 mm 0 mps 635 mmHg 90%
    23:00 +6°C° 0 mm 0 mps 635 mmHg 90%

    27 October, Sunday

    Time Temperature Precipitation Wind Pressure Humidity
    00:00 +6°C° 0 mm 0 mps 635 mmHg 89%
    01:00 +6°C° 0 mm 0 mps 635 mmHg 89%
    02:00 +6°C° 0 mm 0 mps 635 mmHg 89%
    03:00 +5°C° 0 mm 0 mps 635 mmHg 89%
    04:00 +5°C° 0 mm 0 mps 635 mmHg 88%
    05:00 +5°C° 0 mm 0 mps 635 mmHg 89%
    06:00 +5°C° 0 mm 0 mps 635 mmHg 90%
    07:00 +5°C° 0 mm 0 mps 635 mmHg 90%
    08:00 +7°C° 0 mm 0 mps 636 mmHg 84%
    09:00 +8°C° 0 mm 0 mps 637 mmHg 78%
    10:00 +11°C° 0 mm 1 mps 638 mmHg 72%
    11:00 +11°C° 0 mm 1 mps 638 mmHg 68%
    12:00 +12°C° 0 mm 1 mps 638 mmHg 64%
    13:00 +13°C° 0 mm 1 mps 638 mmHg 60%
    14:00 +12°C° 0 mm 1 mps 637 mmHg 62%
    15:00 +12°C° 0 mm 1 mps 637 mmHg 64%
    16:00 +12°C° 0 mm 1 mps 637 mmHg 67%
    17:00 +10°C° 0 mm 1 mps 636 mmHg 73%
    18:00 +8°C° 0 mm 0 mps 636 mmHg 79%
    19:00 +7°C° 0 mm 0 mps 636 mmHg 85%
    20:00 +7°C° 0 mm 0 mps 636 mmHg 86%
    21:00 +7°C° 0 mm 0 mps 636 mmHg 87%
    22:00 +7°C° 0 mm 0 mps 636 mmHg 88%
    23:00 +7°C° 0.1 mm 0 mps 635 mmHg 88%

    28 October, Monday

    Time Temperature Precipitation Wind Pressure Humidity
    00:00 +7°C° 0.1 mm 0 mps 635 mmHg 88%
    01:00 +8°C° 0.1 mm 1 mps 635 mmHg 88%
    02:00 +8°C° 0 mm 1 mps 635 mmHg 87%
    03:00 +8°C° 0 mm 1 mps 634 mmHg 87%
    04:00 +7°C° 0 mm 1 mps 634 mmHg 86%
    05:00 +8°C° 0 mm 1 mps 634 mmHg 84%
    06:00 +8°C° 0 mm 1 mps 634 mmHg 83%
    07:00 +9°C° 0 mm 1 mps 634 mmHg 81%
    08:00 +9°C° 0.1 mm 1 mps 635 mmHg 80%
    09:00 +10°C° 0.1 mm 1 mps 635 mmHg 80%
    10:00 +11°C° 0.1 mm 1 mps 635 mmHg 79%
    11:00 +12°C° 0 mm 1 mps 636 mmHg 71%
    12:00 +13°C° 0 mm 1 mps 636 mmHg 63%
    13:00 +15°C° 0 mm 1 mps 636 mmHg 55%
    14:00 +14°C° 0 mm 1 mps 636 mmHg 59%
    15:00 +14°C° 0 mm 1 mps 635 mmHg 63%
    16:00 +13°C° 0 mm 1 mps 635 mmHg 68%
    17:00 +12°C° 0.1 mm 1 mps 635 mmHg 73%
    18:00 +11°C° 0.1 mm 1 mps 634 mmHg 79%
    19:00 +9°C° 0.1 mm 1 mps 634 mmHg 84%
    20:00 +10°C° 0 mm 1 mps 634 mmHg 83%
    21:00 +10°C° 0 mm 1 mps 635 mmHg 82%
    22:00 +10°C° 0 mm 1 mps 635 mmHg 81%
    23:00 +10°C° 0.1 mm 1 mps 635 mmHg 83%
    Show more